Torna al catalogo

EUTE 28A

EB 1

AttivoComunicazioniGEO
NORAD 26719·PAYLOAD·🇪🇺 EU

Lanciato Mar 8, 2001 da Guiana Space Centre

Loading…

TLE

AggiornatoSource: Space-Track

Epoca: Sep 14, 2026, 13:56 UTC

1 26719U 01011A   26257.58073361 -.00000246  00000-0  00000-0 0  9996
2 26719   7.6019  66.3167 0002694 295.5866   4.9714  0.98795010 93265

Traccia EUTE 28A in tempo reale con AllMySat

Download on the App Store